Hourly Data Report for November 06, 2016

All times are specified in Local Standard Time (LST). Add 1 hour to adjust for Daylight Saving Time where and when it is observed.

VICTORIA UNIVERSITY CS
BRITISH COLUMBIA

48°27'25.200" N
123°18'16.600" W
60.10 m
1018598
71783
WYJ

Download Data

Hourly Data (November 2016)
Hourly Data Report for November 6, 2016
TIME Temp Definition
°C
Dew Point Definition
°C
Rel Hum Definition
%
Wind Dir Definition
10's deg

Wind Spd Definition
km/h
Visibility Definition
km
Stn Press Definition
kPa
Hmdx Definition


Wind Chill Definition


Weather Definition


00:00 10.4 10.3 99   0   100.27     LegendNANA
01:00 10.3 10.2 100 18 2   100.34     LegendNANA
02:00 10.3 10.2 100 14 1   100.40     LegendNANA
03:00 9.6 9.6 100 10 2   100.43     LegendNANA
04:00 10.1 10.0 100 13 1   100.48     LegendNANA
05:00 10.1 10.1 100 8 2   100.52     LegendNANA
06:00 10.1 10.0 100 8 4   100.55     LegendNANA
07:00 9.7 9.6 100 13 4   100.62     LegendNANA
08:00 9.7 9.7 100 10 2   100.68     LegendNANA
09:00 10.4 10.3 100 12 2   100.70     LegendNANA
10:00 10.3 8.7 90 7 4   100.75     LegendNANA
11:00 11.2 9.8 91 6 4   100.82     LegendNANA
12:00 12.0 9.6 85 9 5   100.80     LegendNANA
13:00 13.1 10.0 81 9 5   100.79     LegendNANA
14:00 12.2 9.9 86 9 3   100.82     LegendNANA
15:00 10.1 9.0 93 9 3   100.83     LegendNANA
16:00 9.8 9.2 96 3 3   100.79     LegendNANA
17:00 9.2 8.8 97 0 1   100.81     LegendNANA
18:00 9.5 9.1 97 35 5   100.86     LegendNANA
19:00 9.9 9.4 97 36 5   100.82     LegendNANA
20:00 10.0 9.4 96 32 3   100.82     LegendNANA
21:00 11.1 9.5 90 8 5   100.75     LegendNANA
22:00 11.1 9.3 89 14 3   100.79     LegendNANA
23:00 10.5 9.4 93 8 4   100.75     LegendNANA

Notes on Data Quality.

Legend

  • E = Estimated
  • M = Missing
  • NA = Not Available
Date modified: